Simultaneous Nadir Overpasses (SNOs) Predictions

Prediction of SNOs between METOP-A and NPP Satellite Orbit:

Table of predicted SNOs for the next 14.0 days since TLE Epoch: 7/26/2018
Index Date (METOP-A) Time (METOP-A) Lat,Lon (METOP-A) SZA (METOP-A ) Date (NPP) Time (NPP) Lat,Lon (NPP) SZA (NPP ) Distance(km) Time Diff (sec)
1 07/30/2018 18:12:33 74.06,-101.34 55.85 07/30/2018 18:11:25 74.05,-103.86 56.01 76.93 68
2 07/30/2018 19:03:17 -73.96, 65.74 124.23 07/30/2018 19:02:07 -73.94, 63.71 124.10 62.34 70
3 07/30/2018 19:54:01 73.73,-127.46 55.59 07/30/2018 19:52:49 73.75,-128.52 55.70 33.08 72
4 07/30/2018 20:44:45 -73.63, 39.63 124.49 07/30/2018 20:43:31 -73.65, 39.04 124.41 18.71 74
5 07/30/2018 21:35:27 73.50,-153.32 55.42 07/30/2018 21:34:14 73.51,-153.32 55.44 0.31 73
6 07/30/2018 22:26:09 -73.50, 14.00 124.58 07/30/2018 22:24:58 -73.50, 14.01 124.56 0.14 71
7 07/30/2018 23:16:48 73.52,-178.61 55.45 07/30/2018 23:15:44 73.51,-178.70 55.46 3.32 64
8 07/31/2018 00:07:31 -73.48, -11.40 124.59 07/31/2018 00:06:28 -73.50, -11.37 124.54 3.32 63
9 07/31/2018 00:58:10 73.50, 155.98 55.45 07/31/2018 00:57:14 73.51, 155.92 55.48 2.47 56
10 07/31/2018 01:48:52 -73.50, -36.69 124.55 07/31/2018 01:47:58 -73.51, -36.75 124.52 2.31 54
11 07/31/2018 02:39:32 73.47, 130.58 55.44 07/31/2018 02:38:43 73.46, 130.66 55.44 2.46 49
12 07/31/2018 03:30:14 -73.47, -62.09 124.56 07/31/2018 03:29:27 -73.46, -62.02 124.56 2.53 47
13 07/31/2018 04:20:53 73.49, 105.29 55.47 07/31/2018 04:20:13 73.46, 105.28 55.46 2.91 40
14 07/31/2018 05:11:35 -73.49, -87.38 124.52 07/31/2018 05:10:57 -73.46, -87.40 124.54 3.42 38
15 07/31/2018 06:02:15 73.46, 79.89 55.47 07/31/2018 06:01:43 73.47, 79.90 55.48 0.58 32
16 07/31/2018 06:52:57 -73.46,-112.78 124.53 07/31/2018 06:52:27 -73.46,-112.78 124.52 0.11 30
17 07/31/2018 07:43:36 73.48, 54.60 55.50 07/31/2018 07:43:13 73.47, 54.52 55.50 3.10 23
18 07/31/2018 08:34:19 -73.44,-138.19 124.53 07/31/2018 08:33:57 -73.47,-138.16 124.50 3.45 22
19 07/31/2018 09:24:58 73.46, 29.20 55.50 07/31/2018 09:24:43 73.47, 29.14 55.52 2.58 15
20 07/31/2018 10:15:40 -73.46,-163.48 124.50 07/31/2018 10:15:27 -73.47,-163.54 124.48 2.32 13
21 07/31/2018 11:06:20 73.43, 3.79 55.49 07/31/2018 11:06:12 73.42, 3.87 55.49 2.46 8
22 07/31/2018 11:57:02 -73.43, 171.12 124.50 07/31/2018 11:56:56 -73.42, 171.19 124.51 2.50 6
23 07/31/2018 12:47:41 73.45, -21.50 55.53 07/31/2018 12:47:42 73.43, -21.51 55.51 2.64 1
24 07/31/2018 13:38:22 -73.45, 145.83 124.47 07/31/2018 13:38:25 -73.42, 145.81 124.49 3.29 3
25 07/31/2018 14:29:02 73.42, -46.90 55.52 07/31/2018 14:29:11 73.43, -46.89 55.53 0.85 9
26 07/31/2018 15:19:44 -73.42, 120.43 124.47 07/31/2018 15:19:55 -73.43, 120.43 124.47 0.18 11
27 07/31/2018 16:10:23 73.44, -72.19 55.56 07/31/2018 16:10:41 73.43, -72.27 55.55 2.91 18
28 07/31/2018 17:01:05 -73.45, 95.14 124.44 07/31/2018 17:01:25 -73.43, 95.05 124.45 3.42 20
29 07/31/2018 17:51:45 73.42, -97.59 55.55 07/31/2018 17:52:11 73.43, -97.65 55.57 2.73 26
30 07/31/2018 18:42:27 -73.42, 69.74 124.44 07/31/2018 18:42:55 -73.43, 69.67 124.43 2.37 28
31 07/31/2018 19:33:07 73.39,-123.00 55.55 07/31/2018 19:33:40 73.39,-122.92 55.53 2.47 33
32 07/31/2018 20:23:49 -73.39, 44.33 124.45 07/31/2018 20:24:24 -73.38, 44.41 124.47 2.46 35
33 07/31/2018 21:14:28 73.41,-148.29 55.58 07/31/2018 21:15:10 73.39,-148.30 55.55 2.37 42
34 07/31/2018 22:05:10 -73.41, 19.04 124.41 07/31/2018 22:05:54 -73.39, 19.03 124.45 3.17 44
35 07/31/2018 22:55:50 73.38,-173.69 55.58 07/31/2018 22:56:40 73.39,-173.68 55.57 1.12 50
36 07/31/2018 23:46:32 -73.39, -6.36 124.42 07/31/2018 23:47:24 -73.39, -6.35 124.43 0.29 52
37 08/01/2018 00:37:11 73.40, 161.02 55.61 08/01/2018 00:38:10 73.39, 160.94 55.59 2.76 59
38 08/01/2018 01:27:53 -73.41, -31.65 124.38 08/01/2018 01:28:54 -73.39, -31.73 124.41 3.34 61
39 08/01/2018 02:18:33 73.38, 135.62 55.61 08/01/2018 02:19:40 73.40, 135.56 55.61 2.92 67
40 08/01/2018 03:09:15 -73.38, -57.05 124.39 08/01/2018 03:10:24 -73.39, -57.11 124.39 2.45 69
41 08/01/2018 03:59:56 73.30, 110.10 55.56 08/01/2018 04:01:09 73.35, 110.29 55.58 8.33 73
42 08/01/2018 04:50:39 -73.25, -82.67 124.48 08/01/2018 04:51:52 -73.29, -82.27 124.48 13.80 73
43 08/01/2018 05:41:23 73.02, 84.16 55.34 08/01/2018 05:42:33 73.05, 85.58 55.26 46.24 70
44 08/01/2018 06:32:06 -72.97,-108.61 124.69 08/01/2018 06:33:16 -73.00,-106.99 124.79 52.87 70
45 08/01/2018 07:22:51 72.68, 58.13 55.08 08/01/2018 07:23:57 72.75, 60.84 54.95 90.02 66
46 08/01/2018 08:13:34 -72.64,-134.64 124.95 08/01/2018 08:14:40 -72.70,-131.73 125.11 96.43 66




NCC Satellite Simultaneous Nadir Overpasses (SNOs) Prediction Service
